Pulkovo current weather conditions

sailwx.info

Wind from 110 at 9 knots

Air temperature 2.0° C
Visibility: greater than 5.4 NM
Dewpoint 1.0° C
Present weather: Light rain.

Last reported at 2015-Apr-01 21:30 UTC.
Time now 2015-Apr-01 22:36 UTC

Location: N 59°48' E 030°16'.
View on Google Maps.

See reports from other nearby stations

  
Tides and Currents Weather Stations Pressure Air Temp Water Temp Dewpoint Dewpoint Depression Visibility Wind Speed Wind Dir Waves Ship Positions
date/time (UTC)wind fromknots sea level pressurealtimeterstation pressurevisibilityair tempwater tempwave heightnotes
2015-Apr-01 21:30 110 9 5.4 2.0 Light rain.
2015-Apr-01 21:00 100 9 5.4 2.0 Light rain.
2015-Apr-01 20:30 100 9 5.4 2.0
2015-Apr-01 20:00 100 9 5.4 2.0 Light rain.
2015-Apr-01 19:30 100 9 5.4 2.0 Light rain.
2015-Apr-01 19:00 110 11 5.4 2.0 Light rain.
2015-Apr-01 18:30 110 11 5.4 2.0 Light rain.
2015-Apr-01 18:00 110 11 5.4 2.0 Light rain.
2015-Apr-01 17:30 110 11 5.4 3.0 Light rain.
2015-Apr-01 17:00 110 11 5.4 3.0 Light rain.
2015-Apr-01 16:30 110 13 5.4 3.0 Light rain.
2015-Apr-01 16:00 110 13 5.4 4.0 Light rain.
2015-Apr-01 15:30 100 9 5.4 5.0
2015-Apr-01 15:00 110 9 5.4 5.0
2015-Apr-01 14:30 110 11 5.4 5.0
2015-Apr-01 14:00 110 11 5.4 5.0
2015-Apr-01 13:30 110 11 5.4 5.0
2015-Apr-01 13:00 100 11 5.4 5.0
2015-Apr-01 12:30 100 11 5.4 5.0
2015-Apr-01 12:00 110 11 5.4 5.0
2015-Apr-01 11:30 110 13 5.4 4.0
2015-Apr-01 11:00 120 11 5.4 5.0
2015-Apr-01 10:30 120 13 5.4 4.0
2015-Apr-01 10:00 130 11 5.4 4.0
2015-Apr-01 09:30 120 11 5.4 4.0
2015-Apr-01 09:00 120 9 5.4 4.0
2015-Apr-01 08:30 130 7 5.4 3.0
2015-Apr-01 08:00 130 11 5.4 3.0
2015-Apr-01 07:30 120 11 5.4 3.0
2015-Apr-01 07:00 130 9 5.4 3.0
2015-Apr-01 06:30 130 9 3.8 3.0 Light drizzle.
2015-Apr-01 06:00 140 9 5.4 3.0
2015-Apr-01 05:30 130 9 5.4 3.0
2015-Apr-01 05:00 140 7 5.4 3.0
2015-Apr-01 04:30 130 5 5.4 3.0
2015-Apr-01 04:00 120 5 5.4 3.0
2015-Apr-01 03:30 140 5 5.4 3.0
2015-Apr-01 03:00 150 5 5.4 3.0
2015-Apr-01 02:30 140 5 5.4 3.0
2015-Apr-01 02:00 130 3 5.4 3.0
2015-Apr-01 01:30 140 3 5.4 3.0
2015-Apr-01 01:00 140 3 5.4 3.0
2015-Apr-01 00:30 160 3 3.2 3.0 Light rain.
2015-Apr-01 00:00 140 3 2.2 3.0 Light rain.
2015-Mar-31 23:30 140 1 1.9 3.0 Light rain.
2015-Mar-31 23:00 3.2 4.0 Light rain.
2015-Mar-31 22:30 5.4 4.0 Light rain.
2015-Mar-31 22:00 180 3 3.2 4.0 Light rain.
2015-Mar-31 21:30 150 5 5.4 4.0
2015-Mar-31 21:00 170 3 5.4 4.0
2015-Mar-31 20:30 160 5 5.4 4.0
2015-Mar-31 20:00 170 7 5.4 4.0
2015-Mar-31 19:30 180 5 5.4 4.0
2015-Mar-31 19:00 160 5 5.4 4.0
2015-Mar-31 18:30 160 5 5.4 3.0
2015-Mar-31 18:00 160 7 5.4 3.0
2015-Mar-31 17:30 160 7 5.4 4.0 Light rain.
2015-Mar-31 17:00 150 7 5.4 3.0 Light rain.
2015-Mar-31 16:30 150 9 5.4 3.0 Light rain.
2015-Mar-31 16:00 150 11 5.4 3.0
2015-Mar-31 15:30 160 13 5.4 3.0
2015-Mar-31 15:00 150 9 gusting 19 5.4 3.0 Light rain.
2015-Mar-31 14:30 150 13 5.4 3.0 Light rain.
2015-Mar-31 14:00 150 15 5.4 3.0 Light rain.
2015-Mar-31 13:30 150 15 4.3 3.0 Light rain.
2015-Mar-31 13:00 150 17 5.4 3.0 Light rain.
2015-Mar-31 12:30 150 17 5.4 3.0 Light rain.
2015-Mar-31 12:00 150 19 gusting 29 5.4 4.0 Light rain.
2015-Mar-31 11:30 150 13 gusting 23 5.4 5.0 Light rain.
2015-Mar-31 11:00 160 13 gusting 25 5.4 5.0
2015-Mar-31 10:30 160 19 gusting 29 5.4 5.0
2015-Mar-31 10:00 160 21 5.4 5.0
2015-Mar-31 09:30 160 21 gusting 33 5.4 5.0
2015-Mar-31 09:00 160 23 gusting 34 5.4 6.0
2015-Mar-31 08:30 160 21 gusting 31 5.4 5.0 Light rain.
2015-Mar-31 08:00 160 19 gusting 29 5.4 5.0 Light rain.
2015-Mar-31 07:30 160 21 gusting 31 5.4 5.0
2015-Mar-31 07:00 160 21 gusting 31 5.4 5.0
2015-Mar-31 06:30 150 23 gusting 34 5.4 4.0
2015-Mar-31 06:00 150 25 gusting 36 5.4 4.0
2015-Mar-31 05:30 150 15 gusting 27 5.4 4.0
2015-Mar-31 05:00 150 13 gusting 23 5.4 4.0
2015-Mar-31 04:30 150 15 gusting 27 5.4 3.0
2015-Mar-31 04:00 150 15 gusting 25 5.4 3.0
2015-Mar-31 03:30 150 13 gusting 25 5.4 3.0
2015-Mar-31 03:00 150 13 gusting 23 5.4 2.0
2015-Mar-31 02:30 150 15 gusting 25 5.4 2.0
2015-Mar-31 02:00 150 13 gusting 23 5.4 2.0
2015-Mar-31 01:30 150 13 5.4 2.0
2015-Mar-31 01:00 140 13 gusting 23 5.4 2.0
2015-Mar-31 00:30 150 13 5.4 1.0 Light snow rain.
2015-Mar-31 00:00 140 13 3.8 1.0 Light snow rain.
2015-Mar-30 23:30 150 13 gusting 23 5.4 1.0
2015-Mar-30 23:00 140 11 gusting 21 5.4 1.0
2015-Mar-30 22:30 140 13 5.4 1.0
2015-Mar-30 22:00 140 13 gusting 23 5.4 1.0